Regional Weather Roundup
Issued by NWS

Home | Current Version | Previous Version | Graphics & Text | Print | Product List | Glossary On
Versions: 1 2 3 4 5 6 7 8 9 10 11 12 13 14 15 16 17 18 19 20 21 22 23 24 25 26 27 28 29 30 31 32 33 34 35 36 37 38 39 40 41 42 43 44 45 46 47 48 49 50
000
ASUS43 KLOT 262308
RWRIL

ILLINOIS REGIONAL WEATHER ROUNDUP
NATIONAL WEATHER SERVICE CHICAGO/ROMEOVILLE IL
600 PM CDT MON SEP 26 2016

NOTE: "FAIR" INDICATES FEW OR NO CLOUDS BELOW 12,000 FEET WITH NO
SIGNIFICANT WEATHER AND/OR OBSTRUCTIONS TO VISIBILITY.

* THESE STATIONS ARE NOT UNDER NWS QUALITY CONTROL. THEY ALSO MAY NOT
  REPORT WEATHER SUCH AS PRECIPITATION OR FOG.

ILZ001-002-007-009-015-016-024-270000-
NORTHWEST ILLINOIS

CITY           SKY/WX    TMP DP  RH WIND       PRES   REMARKS
MOLINE         CLEAR     70  35  27 W13       29.98F
STERLING*      CLEAR     67  34  29 W20       29.96S
SAVANNA*       CLEAR     68  34  28 W15G25    29.96S
$$

ILZ003-004-008-010-011-017-018-270000-
NORTH CENTRAL ILLINOIS

CITY           SKY/WX    TMP DP  RH WIND       PRES   REMARKS
ROCKFORD       CLEAR     67  34  29 W12G25    29.95S
FREEPORT*      CLEAR     65  33  30 W13G25    29.96S
ROCHELLE*      CLEAR     65  37  35 W15G25    29.96S
DE KALB*       CLEAR     65  35  32 W15G22    29.95S
$$

ILZ005-006-012>014-019>023-270000-
NORTHEAST ILLINOIS

CITY           SKY/WX    TMP DP  RH WIND       PRES   REMARKS
CHICAGO-OHARE  PTCLDY    67  32  27 W20G29    29.92S
CHICAGO-MIDWAY PTCLDY    69  31  24 W15G24    29.93S
AURORA         CLEAR     67  34  29 W21G28    29.94S
LANSING*       CLEAR     68  38  32 W14G30    29.94S
JOLIET*        CLEAR     70  32  24 W13G22    29.95S
WAUKEGAN       CLEAR     65  33  30 W9G21     29.89S
DUPAGE AIRPORT CLEAR     67  32  27 W18G31    29.93S
KANKAKEE*      PTCLDY    69  30  23 W13G24    29.97S
WHEELING       CLEAR     67  31  26 W13G24    29.92S
MORRIS*        CLEAR     69  31  24 W14G28    29.95R
ROMEOVILLE*    CLEAR     67  39  35 W13G23    29.95S
NORTHERLY ISL    N/A     69  29  22 W15         N/A
$$

LMZ740>746-270000-
SOUTHERN LAKE MICHIGAN

STATION/POSITION SKY/WX   TEMP    WIND        PRES    VSBY  WAVE
                          AIR SEA DIR/SP/G                  HT/PER
                          (F)     (DEG/KT/KT) (MB)    (MI)  (FT/S)
SOUTHERN BUOY              67 71  260/ 21/ 27 1011.1R         6/ 5
WILMETTE HARBOR            66 63  290/ 17/ 21   N/A           3/ 3
HARRISON CRIB              69     270/ 24/ 28   N/A
BURNHAM HARBOR             69     240/ 13/ 20   N/A
CALUMET HARBOR             70     250/  9/ 25 1013.0R
BURNS HARBOR               68     260/ 22     1013.5F
MICHIGAN CITY              67     240/ 25/ 27   N/A
MICHIGAN CITY 6N           69 67  270/ 21/ 27   N/A           5/ 5
ST. JOSEPH                 67 64  280/ 19/ 25 1012.9F         7/ 6
$$

ILZ025>027-034>036-040-047-049-050-058-095>099-270000-
WEST-CENTRAL ILLINOIS

CITY           SKY/WX    TMP DP  RH WIND       PRES   REMARKS
QUINCY         CLEAR     70  37  29 W8        30.07F
GALESBURG*     CLEAR     69  35  28 W16       30.02S
MACOMB*        CLEAR     71  34  25 W14G21    30.06S
JACKSONVILLE*  CLEAR     71  34  25 W10G16    30.06F
PITTSFIELD*    CLEAR     71  37  28 W9        30.09S
$$

ILZ028>032-037-038-041>044-048-051>054-059>061-270000-
CENTRAL ILLINOIS

CITY           SKY/WX    TMP DP  RH WIND       PRES   REMARKS
PONTIAC        CLEAR     70  33  25 W15G26    29.99S
BLOOMINGTON    CLEAR     69  31  24 W18       30.02S
DECATUR        CLEAR     71  32  23 W12G23    30.04S
PEORIA         CLEAR     70  32  24 W12       30.02S
LACON*         CLEAR     70  28  21 W12G18    29.99
LINCOLN*       CLEAR     72  36  26 W7        30.03S
SPRINGFIELD    CLEAR     73  33  23 W10G16    30.05S
TAYLORVILLE    CLEAR     71  35  26 W13       30.06S
$$

ILZ033-039-045-046-055>057-062-063-270000-
EAST-CENTRAL ILLINOIS

CITY           SKY/WX    TMP DP  RH WIND       PRES   REMARKS
CHAMPAIGN      CLEAR     70  30  22 W14G24    30.03R
RANTOUL*       CLEAR     71  33  24 W13G20    30.01S
MATTOON        CLEAR     70  32  24 W13       30.03S
PARIS*         CLEAR     70  36  28 W6        30.03S
$$

ILZ079-100>102-270000-
SOUTHWEST ILLINOIS

CITY           SKY/WX    TMP DP  RH WIND       PRES   REMARKS
ALTON          CLEAR     70  39  32 W9        30.09S
BELLEVILLE     CLEAR     72  39  30 W7        30.07S
CAHOKIA*       CLEAR     73  34  23 NW9       30.08F
SPARTA*        CLEAR     69  44  39 NW7       30.10S
$$

ILZ064>066-069>071-074>076-080>082-084>086-088>090-092>094-270000-
SOUTH-CENTRAL ILLINOIS

CITY           SKY/WX    TMP DP  RH WIND       PRES   REMARKS
CARBONDALE     CLEAR     69  50  50 NW6       30.08F
CAIRO*         CLEAR     71  54  54 NW7       30.08S
EFFINGHAM*     CLEAR     70  43  38 SW9       30.07S
MT. VERNON     CLEAR     72  43  35 W5        30.09S
CENTRALIA*     CLEAR     72  44  36 W8        30.08R
SALEM*         CLEAR     71  41  33 W8        30.08S
METROPOLIS*    CLEAR     72  50  46 CALM      30.08S
$$

ILZ067-068-072-073-078-083-087-091-270000-
SOUTHEAST ILLINOIS

CITY           SKY/WX    TMP DP  RH WIND       PRES   REMARKS
LAWRENCEVILLE  CLEAR     72  41  32 W9        30.05S
FLORA*         CLEAR     72  42  34 W7        30.07S
FAIRFIELD*     CLEAR     69  44  40 CALM      30.06S
HARRISBURG*    CLEAR     71  51  48 NW3       30.08S
ROBINSON*      CLEAR     68  41  37 W8        30.05S
CARMI*         CLEAR     71  49  46 W6        30.06S
$$

ABBREVIATIONS USED IN REMARKS
   TC - TEMPERATURE IN CELSIUS
  WCI - WIND CHILL INDEX
   HX - HEAT INDEX
  VSB - VISIBILITY
$$





USA.gov is the U.S. government's official web portal to all federal, state and local government web resources and services.